• MPC Preparation (Info)

  • MPEC 2019-L97 : 2010 NA

    The following Minor Planet Electronic Circular may be linked-to from your own Web pages, but must not otherwise be redistributed electronically.

    A form allowing access to any MPEC is at the bottom of this page.


    Read MPEC 2019-L96 Read MPEC 2019-L98


    M.P.E.C. 2019-L97                                Issued 2019 June 14, 03:40 UT  
    
         The Minor Planet Electronic Circulars contain information on unusual
             minor planets and routine data on comets.  They are published
        on behalf of Division F of the International Astronomical Union by the
              Minor Planet Center, Smithsonian Astrophysical Observatory,
                              Cambridge, MA 02138, U.S.A.
    
                 Prepared using the Tamkin Foundation Computer Network
    
                                  MPC@CFA.HARVARD.EDU
                URL https://www.minorplanetcenter.net/    ISSN 1523-6714
    
                                     2010 NA                                 
    
                                Revision to MPEC 2010-N5                            
    
    Additional Observations:
         K10N00A  C2013 02 12.37321806 05 05.881+10 21 54.90         20.7 GVEL097F51
         K10N00A  C2013 02 12.38620006 05 08.207+10 22 14.90         20.4 GVEL097F51
         K10N00A  C2019 06 06.33795 16 48 58.18 -03 23 38.1          20.9 GVEL097G96
         K10N00A  C2019 06 06.34314 16 48 57.32 -03 23 32.6          21.4 GVEL097G96
         K10N00A  C2019 06 06.34833 16 48 56.49 -03 23 26.8          21.0 GVEL097G96
         K10N00A  C2019 06 06.35352 16 48 55.69 -03 23 20.0          20.4 GVEL097G96
         K10N00A  C2019 06 06.41849 16 48 45.33 -03 22 04.6          20.3 GVEL097I52
         K10N00A  C2019 06 06.42057 16 48 45.00 -03 22 02.0          20.6 GVEL097I52
         K10N00A  C2019 06 06.42265 16 48 44.67 -03 21 59.7          20.4 GVEL097I52
         K10N00A  C2019 06 06.42473 16 48 44.34 -03 21 57.6          20.9 GVEL097I52
         K10N00A  C2019 06 07.25757 16 46 34.86 -03 05 46.5          20.9 GVEL097I52
         K10N00A  C2019 06 07.25882 16 46 34.63 -03 05 44.9          20.6 GVEL097I52
         K10N00A  C2019 06 07.26007 16 46 34.45 -03 05 43.3          20.9 GVEL097I52
         K10N00A  C2019 06 07.26132 16 46 34.22 -03 05 42.3          21.1 GVEL097I52
         K10N00A  C2019 06 07.44058316 46 05.366-03 02 08.44         20.5 GVEL097F51
         K10N00A  C2019 06 08.23982 16 43 56.65 -02 46 28.1          21.1 GVEL097I52
         K10N00A  C2019 06 08.24317 16 43 56.08 -02 46 23.8          20.3 GVEL097I52
         K10N00A  C2019 06 08.24652 16 43 55.51 -02 46 20.3          21.0 GVEL097I52
         K10N00A  C2019 06 08.24986 16 43 54.93 -02 46 16.4          20.5 GVEL097I52
         K10N00A |C2019 06 08.25678 16 43 53.08 -02 45 49.6          20.6 GUEL097807
         K10N00A |C2019 06 08.25883 16 43 52.74 -02 45 47.3          20.5 GUEL097807
         K10N00A |C2019 06 08.26089 16 43 52.40 -02 45 44.5          20.5 GUEL097807
         K10N00A pC2019 06 08.94488916 41 59.69 -02 32 31.6          20.5 GVEL097L01
         K10N00A KC2019 06 08.94804016 41 59.14 -02 32 28.0          20.6 GVEL097L01
         K10N00A KC2019 06 08.95198816 41 58.47 -02 32 23.1          20.5 GVEL097L01
         K10N00A KC2019 06 09.05563 16 41 40.63 -02 30 19.1                qEL097104
         K10N00A KC2019 06 09.06308 16 41 39.34 -02 30 09.6          20.5 RqEL097104
         K10N00A  C2019 06 09.27931 16 41 03.57 -02 25 48.4          20.1 GVEL097I52
         K10N00A  C2019 06 09.28056 16 41 03.37 -02 25 46.9          20.2 GVEL097I52
         K10N00A  C2019 06 09.28181 16 41 03.13 -02 25 45.3          20.2 GVEL097I52
         K10N00A  C2019 06 09.28306 16 41 02.92 -02 25 43.3          20.9 GVEL097I52
         K10N00A KC2019 06 10.28136 16 38 11.89 -02 05 39.3          20.5 RoEL097691
         K10N00A KC2019 06 10.28800 16 38 10.71 -02 05 31.3          20.9 RoEL097691
         K10N00A KC2019 06 10.29462 16 38 09.50 -02 05 23.8          20.5 RoEL097691
         K10N00A  C2019 06 11.29682 16 35 12.75 -01 45 02.7          20.6 GVEL097I52
         K10N00A  C2019 06 11.30076 16 35 11.98 -01 44 58.0          20.6 GVEL097I52
         K10N00A  C2019 06 11.30616 16 35 10.99 -01 44 51.1          21.6 GVEL097I52
         K10N00A  C2019 06 11.30845 16 35 10.59 -01 44 48.4          20.4 GVEL097I52
         K10N00A  C2019 06 11.48817 16 34 37.992-01 41 05.05         20.7 wUEL097F51
         K10N00A  C2019 06 11.49933 16 34 35.915-01 40 51.37         20.7 wUEL097F51
         K10N00A  C2019 06 11.52169 16 34 31.758-01 40 23.89         20.7 wUEL097F51
         K10N00A  C2019 06 12.25442 16 32 19.58 -01 25 26.4                VEL097I52
         K10N00A  C2019 06 12.25595 16 32 19.29 -01 25 24.9          19.8 GVEL097I52
         K10N00A  C2019 06 12.25748 16 32 18.98 -01 25 22.4                VEL097I52
         K10N00A  C2019 06 13.26856 16 29 11.02 -01 04 30.3          20.9 GVEL097I52
         K10N00A  C2019 06 13.27023 16 29 10.66 -01 04 28.0          20.8 GVEL097I52
         K10N00A  C2019 06 13.27190 16 29 10.36 -01 04 25.6          21.4 GVEL097I52
         K10N00A  C2019 06 13.27356 16 29 10.01 -01 04 23.8          20.7 GVEL097I52
    
    Observer details:
    104 San Marcello Pistoiese.  Observers P. Bacci, M. Maestripieri.  
        0.60-m reflector + CCD.
    691 Steward Observatory, Kitt Peak-Spacewatch.  Observer R. A. Mastaler.  
        0.9-m f/3 reflector + CCD.
    807 Cerro Tololo Observatory, La Serena.  Observers T. Linder, R. Holmes.  
        1.00-m f/10.0 astrograph + CCD.
    F51 Pan-STARRS 1, Haleakala.  Observers J. Bulger, K. Chambers, T. Lowe,
        E. Magnier, A. Schultz, M. Willman.  1.8-m Ritchey-Chretien + CCD.
    G96 Mt. Lemmon Survey.  Observer T. A. Pruyne.  1.5-m reflector + 10K CCD.
    I52 Steward Observatory, Mt. Lemmon Station.  Observers E. J. Christensen,
        B. M. Africano, H. Groeller, T. A. Pruyne.  1.0-m reflector + CCD.
    L01 Visnjan Observatory, Tican.  Observers K. Korlevic, G. Kervina.  
        1.0-m f/2.9 reflector + CCD.
    
    First and last observations above in comparison with prediction:
    Residuals in seconds of arc (or zero decimals in degrees), reference and Delta-T
    130212 F51   27-    0-    190613 I52  141-   17-    MPO179638   -61.0 days
    
    Orbital elements:
    2010 NA                                                  Earth MOID = 0.1007 AU
    Epoch 2019 Apr. 27.0 TT = JDT 2458600.5                 MPC
    M 300.26779              (2000.0)            P               Q
    n   0.43559603     Peri.  203.27620     +0.96183778     -0.27323841
    a   1.7235085      Node   172.53675     +0.26526829     +0.91822730
    e   0.6540847      Incl.    6.38790     +0.06708808     +0.28670437
    P   2.26           H   20.6           G   0.15           U   1
    Residuals in seconds of arc
    100701 704  0.9+  0.2+    100703 J95  0.1-  0.0     190608 I52  0.1+  0.0
    100701 704  0.9+  0.0     100704 I15  0.2+  0.0     190608 I52  0.1+  0.3+
    100701 704  0.6+  0.2+    100704 I15  0.2+  0.1-    190608 I52  0.1+  0.1-
    100701 704  0.1-  0.1+    100704 I15  0.2+  0.3-    190608 I52  0.1-  0.2-
    100701 704  0.4+  0.1-    100705 H13  0.4-  0.4-    190608 807  0.1+  0.0
    100702 473  0.3+  1.7+    100705 H13  1.3-  0.9+    190608 807  0.2+  0.1-
    100702 473  0.5+  1.7+    100705 H13  3.0-  0.9-    190608 807  0.3+  0.2+
    100702 H36  0.0   0.5+    100705 H21  0.5-  0.0     190608 L01  0.1-  0.0
    100702 H36  0.0   0.3+    100705 H21  0.1+  0.3+    190608 L01  0.2-  0.2-
    100702 H36  0.3+  0.1-    100705 H21  0.2-  0.1+    190608 L01  0.0   0.0
    100702 H36  0.7+  0.3-    100705 H21  0.1+  0.0     190609 104  0.0   0.4-
    100702 G56  0.7-  0.2-    100705 H21  0.0   0.1+    190609 104  0.2-  0.2+
    100702 G56  0.6-  0.5+    100706 H21  0.1-  0.1-    190609 I52  0.1-  0.3-
    100702 G56  0.9-  0.2-    100706 H21  0.2-  0.0     190609 I52  0.1+  0.3-
    100702 H21  0.1+  0.0     100706 H21  0.1-  0.1+    190609 I52  0.2-  0.2-
    100702 H21  0.3+  0.1-    100706 H21  0.0   0.4+    190609 I52  0.0   0.3+
    100702 H21  0.3+  0.1-    100706 H21  0.1+  0.3+    190610 691  0.1-  0.2+
    100702 850  0.3-  0.3+    100706 J95  0.2-  0.2-    190610 691  0.2+  0.2+
    100702 850  0.3-  0.2-    100706 J95  0.5+  0.4-    190610 691  0.0   0.4-
    100702 850  0.5-  0.3+    100706 J95  0.4+  0.5-    190611 I52  0.1+  0.1+
    100702 850  0.2-  0.2-    130212 F51  0.3-  0.1+    190611 I52  0.5-  0.0
    100702 850  0.2-  0.5-    130212 F51  0.1-  0.2+    190611 I52  0.3-  0.3+
    100702 B03  0.1+  0.1-    190606 G96  0.0   0.1+    190611 I52  0.0   0.2+
    100702 B03  0.1-  0.3-    190606 G96  0.4-  0.4-    190611 F51  0.2+  0.0
    100702 B03  0.1-  0.1-    190606 G96  0.4-  0.6-    190611 F51  0.2+  0.0
    100702 B03  0.2-  0.1+    190606 G96  0.0   0.2+    190611 F51  0.1+  0.0
    100702 B03  0.3+  0.2-    190606 I52  0.1+  0.0     190612 I52  0.1-  0.3-
    100702 B03  0.1+  0.3-    190606 I52  0.1+  0.2+    190612 I52  0.1-  0.6-
    100703 J95  0.0   0.2+    190606 I52  0.1+  0.1+    190612 I52  0.4-  0.0
    100703 J95  0.2+  0.1-    190606 I52  0.1+  0.2-    190613 I52  0.2+  0.3-
    100703 J95  0.2-  0.1-    190607 I52  0.1+  0.1-    190613 I52  0.3-  0.1-
    100703 157  0.2-  0.3+    190607 I52  0.3-  0.0     190613 I52  0.1+  0.2+
    100703 157  0.5+  0.4-    190607 I52  0.1+  0.1+    190613 I52  0.3-  0.0
    100703 J95  0.1-  0.5-    190607 I52  0.2-  0.3-
    100703 J95  0.0   0.1-    190607 F51  0.0   0.0
    
    Ephemeris:
    2010 NA                  a,e,i = 1.72, 0.65, 6                   q = 0.5962
    Date    TT    R. A. (2000) Decl.     Delta      r    Elong.  Phase     V
    2019 05 15    17 26 11.4 -09 23 11   0.7626  1.7111   149.2    17.6    22.1
    ...
    2019 05 30    17 05 32.3 -05 37 55   0.5828  1.5767   161.2    11.9    21.1
    ...
    2019 06 07    16 47 15.4 -03 10 39   0.5059  1.5009   160.3    13.2    20.8
    ...
    2019 06 13    16 30 01.5 -01 09 54   0.4577  1.4422   154.5    17.6    20.6
    2019 06 14    16 26 52.2 -00 49 09   0.4505  1.4323   153.3    18.6    20.6
    2019 06 15    16 23 38.2 -00 28 15   0.4434  1.4223   151.9    19.6    20.6
    ...
    2019 06 21    16 02 41.7 +01 38 43   0.4058  1.3615   142.7    26.9    20.5
    ...
    2019 06 29    15 31 21.1 +04 25 25   0.3670  1.2779   128.5    38.5    20.5
    ...
    2019 07 14    14 26 36.2 +08 55 59   0.3201  1.1143    99.4    64.2    20.6
    
    A. U. Tomatic                (C) Copyright 2019 MPC           M.P.E.C. 2019-L97
    


    Read MPEC 2019-L96 Read MPEC 2019-L98


    MPEC number:

    Enter an MPEC number in one of the following forms:

    • 1997-B01 (the full form)
    • J97B01 (the packed version of the full form)
    • B01 (the abbreviated form)